weather.gov     
National Weather Service

Regional Weather Roundup
NWS Homepage
This page is being discontinued on March 12, 2014.
The same data is available at this site. Please update your bookmarks.
Thank you, and we apologize for the inconvenience.
Please send an email to SR-SRH.Webmaster@noaa.gov with any concerns.


Current Version
Previous Version:    01  02  03  04  05  06  07  08  09  10  11  12  13  14  15  16  17  18  19  20  21  22  23  24  25  26  27  28  29  30  
   31  32  33  34  35  
[Printable]
695
ASUS44 KMEG 021710
RWRMEG
MEMPHIS CWA HOURLY WEATHER ROUNDUP
NATIONAL WEATHER SERVICE MEMPHIS TN
1200 PM CDT TUE SEP 02 2014

...WEST TENNESSEE...

CITY           SKY/WX    TMP DP  RH WIND       PRES   REMARKS
MEMPHIS INTL   PTSUNNY   84  74  71 SW10      30.04F HX  91
NWS MEMPHIS      N/A     83 N/A N/A MISG        N/A
JACKSON        PTSUNNY   84  75  74 SW10      30.03S HX  92
LEXINGTON      PTSUNNY   82  73  74 W8        30.03S
SAVANNAH       SUNNY     88  75  66 SW9       30.05F HX  97
DYERSBURG      PTSUNNY   84  70  61 S8        30.00F
UNION CITY     SUNNY     82  75  78 S10       29.96F
PARIS          MOSUNNY   82  73  74 SW15      30.00F
HUNTINGDON     PTSUNNY   82  74  77 W8        30.02F


...EASTERN ARKANSAS...

CITY           SKY/WX    TMP DP  RH WIND       PRES   REMARKS
JONESBORO      CLOUDY    80  69  69 SW7       30.00F
WEST MEMPHIS   PTSUNNY   85  77  77 SW9       30.02F HX  95
BATESVILLE     CLOUDY    75  70  83 SW9       30.05F
NEWPORT        CLOUDY    82  71  69 W9        30.04S
WALNUT RIDGE   CLOUDY    79  68  69 SW12      29.99F
BLYTHEVILLE    CLOUDY    84  77  79 S12G18    29.99F HX  94
STUTTGART      CLOUDY    88  75  66 SW16      30.05F HX  97
PINE BLUFF     CLOUDY    84  74  71 W5        30.05F HX  91
MONTICELLO     CLOUDY    81  74  79 NW5       30.05F


...NORTH MISSISSIPPI...

CITY           SKY/WX    TMP DP  RH WIND       PRES   REMARKS
TUPELO         MOSUNNY   89  74  60 S9        30.04F HX  98
OLIVE BRANCH   PTSUNNY   84  81  89 SW10      30.07S HX  98
CLARKSDALE     CLOUDY    84  75  74 CALM      30.06F HX  92
CORINTH        PTSUNNY   86  73  66 VRB6      30.04F HX  93
GRENADA        MOSUNNY   82  73  74 NW6       30.05F
GREENWOOD      LGT RAIN  81  76  84 CALM      30.07F
COLUMBUS       PTSUNNY   90  72  55 VRB1      30.06F HX  96
STARKVILLE     PTSUNNY   84  72  65 NW7G17    30.07S THUNDER
GOLDEN TRIANGL PTSUNNY   88  73  62 S7        30.07F HX  96


...SOUTHEAST MISSOURI...

CITY           SKY/WX    TMP DP  RH WIND       PRES   REMARKS
WEST PLAINS    CLOUDY    70  66  87 W7        30.05R
POPLAR BLUFF   CLOUDY    76  67  73 SW8       29.96S
CAPE GIRARDEAU CLOUDY    81  70  69 W6        29.96F


...NORTHWEST ALABAMA...

CITY           SKY/WX    TMP DP  RH WIND       PRES   REMARKS
MUSCLE SHOALS  PTSUNNY   91  72  53 S12G18    30.07F HX  98


...MIDDLE TENNESSEE...

CITY           SKY/WX    TMP DP  RH WIND       PRES   REMARKS
NASHVILLE      PTSUNNY   89  72  56 SW9G17    30.03F HX  96
CLARKSVILLE    CLOUDY    84  74  71 SW7       29.99F HX  91
DICKSON        PTSUNNY   86  73  66 SW10      30.03F HX  93
COLUMBIA       PTSUNNY   90  75  62 S10       30.03F HX 100
LEWISBURG      SUNNY     88  73  60 SW10      30.05F HX  95


...WESTERN KENTUCKY...

CITY           SKY/WX    TMP DP  RH WIND       PRES   REMARKS
PADUCAH        CLOUDY    83  72  69 SW9       29.97R
FORT CAMPBELL  PTSUNNY   84  75  74 SW15      29.98F HX  92


...CENTRAL ARKANSAS...

CITY           SKY/WX    TMP DP  RH WIND       PRES   REMARKS
LITTLE ROCK    LGT RAIN  78  70  76 NW10      30.07R


SKY/WX REPORTED AS FAIR MEANS FEW OR NO CLOUDS BELOW
12 THOUSAND FEET.





U.S. Dept. of Commerce
NOAA National Weather Service
1325 East West Highway
Silver Spring, MD 20910
E-mail: w-nws.webmaster@noaa.gov
Page last modified: May 16, 2007
NATIONAL WEATHER SERVICE: for Safety, for Work, for Fun - FOR LIFE